Regional Weather Roundup
Issued by NWS Albany, NY

Home | Current Version | Previous Version | Graphics & Text | Print | Product List | Glossary Off
Versions: 1 2 3 4 5 6 7 8 9 10 11 12 13 14 15 16 17 18 19 20 21 22 23 24 25 26 27

000
ASUS41 KALY 251110
RWRALY

NEW YORK STATE HOURLY WEATHER ROUNDUP
NATIONAL WEATHER SERVICE ALBANY NY
700 AM EDT SAT MAR 25 2017

NOTE: "FAIR" INDICATES FEW OR NO CLOUDS BELOW 12,000 FEET WITH NO
SIGNIFICANT WEATHER AND/OR NO OBSTRUCTIONS TO VISIBILITY.

NYZ032-033-038>043-046>054-057>066-NYZ062>081-082-084-251200-
EAST


CITY           SKY/WX    TMP DP  RH WIND       PRES   REMARKS
ALBANY         CLOUDY    37  33  85 N8        30.17R FOG     WCI  31
GLENS FALLS    LGT RAIN  34  32  92 NE5       30.19R FOG     WCI  30
POUGHKEEPSIE   CLOUDY    35  32  88 CALM      30.12R
NEWBURGH       MOCLDY    41  36  81 VRB6      30.12R
MONTGOMERY     CLOUDY    36  33  89 CALM      30.11S
WHITE PLAINS   CLOUDY    44  34  67 CALM      30.11R
ISLIP          CLOUDY    42  39  89 N6        30.12R
NEW YORK CITY  CLOUDY    55  38  52 VRB3      30.12R
CENTRAL PARK   MOCLDY    53  38  56 VRB6      30.14R
$$

NYZ005>009-017-018-044>046-055-056-251200-
CENTRAL


CITY           SKY/WX    TMP DP  RH WIND       PRES   REMARKS
FULTON         LGT RAIN  34  32  92 N5        30.17S WCI  30
SYRACUSE       LGT RAIN  34  34 100 NW5       30.16R WCI  30
ROME           CLOUDY    35  35 100 N3        30.18R
ELMIRA         CLOUDY    41  37  86 E7        30.15R
BINGHAMTON     FOG       37  37 100 NW3       30.11R VSB 1/2
MONTICELLO     CLOUDY    37  36  93 W5        30.11R WCI  34
$$

NYZ026>034-041>043-087-251200-
NORTH


CITY           SKY/WX    TMP DP  RH WIND       PRES   REMARKS
WATERTOWN      CLOUDY    33  32  96 NE8       30.20R FOG     WCI  26
FORT DRUM      NOT AVBL
MASSENA        FOG       27  27 100 CALM      30.25R VSB 1/2
SARANAC LAKE   CLOUDY    30  29  96 N5        30.14R WCI  25
PLATTSBURGH    CLOUDY    32  31  96 CALM      30.23R FOG
$$

NYZ001>004-010>016-019>021-085-251200-
WEST


CITY           SKY/WX    TMP DP  RH WIND       PRES   REMARKS
NIAGARA FALLS  CLOUDY    38  34  85 NE14      30.15S WCI  30
BUFFALO        CLOUDY    37  34  89 NE16      30.13S WCI  28
DUNKIRK        CLOUDY    39  38  96 N9        30.12R FOG     WCI  33
JAMESTOWN      CLOUDY    48  45  87 S6        30.09R
WELLSVILLE     CLOUDY    43  40  89 CALM      30.12R FOG
ROCHESTER      LGT RAIN  36  34  92 E7        30.20R WCI  30
PENN YAN       CLOUDY    35  32  88 CALM      30.16R
$$

             KEY
       WCI = WIND CHILL INDEX
       VSB = VISIBILITY
       HX  = HEAT INDEX
$$




USA.gov is the U.S. government's official web portal to all federal, state and local government web resources and services.